Location: Chimay
(50.0486°N, 4.3171°E)
Time: 08:17:01
(UTC+00:00)

Cosmos 1544 - Pass Details

Date: 08 August 2020
Orbit: 471 x 491 km, 82.5° (Epoch: 26 September)

Event Time Altitude Azimuth Distance (km) Brightness Sun altitude
Exits shadow 23:53:32 56° 3° (N) 588 3.7 -24.2°
Drops below altitude 10° 23:56:30 10° 9° (N) 1,686 6.9 -24.2°
Sets 23:58:38 0° 10° (N) 2,576 8.1 -24.1°
